[ hide orbit diagram ]
For accurate long-term ephemerides, please instead use our Horizons system.This orbit viewer was implemented using two-body methods, and hence should not be used for determining accurate long-term trajectories (over several years or decades) or planetary encounter circumstances.
Orbital Elements at Epoch 2459000.5 (2020-May-31.0) TDB
Reference: JPL 21 (heliocentric ecliptic J2000)
Element | Value | Uncertainty (1-sigma) | Units |
e | .1438208336998927 | 3.7674e-08 | |
a | 2.63699632613366 | 1.661e-08 | au |
q | 2.257741316045563 | 1.0248e-07 | au |
i | 11.57133087297677 | 7.1016e-06 | deg |
node | 12.97701313602135 | 2.0177e-05 | deg |
peri | 98.28848118576302 | 3.2497e-05 | deg |
M | 321.6362890016911 | 2.5051e-05 | deg |
tp | 2459167.178976084898 (2020-Nov-13.67897609) | 0.00010916 | TDB |
period | 1564.093509963314 4.28 | 1.4778e-05 4.046e-08 | d yr |
n | .2301652667866667 | 2.1747e-09 | deg/d |
Q | 3.016251336221757 | 1.8999e-08 | au |
|
| | Orbit Determination Parameters
Additional Information
|
[ show covariance matrix ]
Physical Parameter Table
Parameter |
Symbol |
Value |
Units |
Sigma |
Reference |
Notes |
absolute magnitude |
H |
15.9 |
|
n/a |
MPO493969 |
|
|
173424 (2000 GV23) Discovered 2000-Apr-05 by LINEAR at Socorro |
Reference: 20080122/Numbers.arc | Last Updated: 2008-01-28 |
|
[ show close-approach data ]
|